Погода в Эльче

Испания     38°15′31″N   0°42′21″E
темп.,
°C
ветер,
м/с
пор.,
м/с
влажн.,
%
обл.,
%
осадки,
мм/ч
давл.,
гПа
погр.,
м
18 мая, вт
вт1823:00+17в12773 0.0 1021119
02:00+16ссв11785 0.0 102012
05:00+15в228484 0.0 102018
08:00+16ссв11805 0.0 102084
11:00+21ююв115672 0.0 1020655
14:00+25ююв544651 0.0 1019998
17:00+24ююв55514 0.0 1017647
20:00+25ю345015 0.0 1016500
19 мая, ср
ср1923:00+20всв1169100 0.0 101722
02:00+20зюз116695 0.0 101711
05:00+20св44622 0.0 101756
08:00+19всв127481 0.0 1019130
11:00+23вюв4255100 0.0 1021950
14:00+22в7662100 0.0 10221009
17:00+20в7766100 0.0 1022808
20:00+19в567123 0.0 1022674
20 мая, чт
чт2023:00+17всв35795 0.0 1025280
02:00+16ссв22825 0.0 102429
05:00+15ссв118410 0.0 102311
08:00+16в138142 0.0 1024145
11:00+20в33595 0.0 1025934
14:00+22вюв64528 0.0 10241084
17:00+22вюв545295 0.0 1023946
20:00+19в4463100 0.0 1023631
21 мая, пт
пт2123:00+17в247976 0.0 1025140
02:00+16всв22835 0.0 102346
05:00+15ссв228664 0.0 102212
08:00+16ссв12746 0.0 1021123
11:00+21в435165 0.0 1022808
14:00+23вюв544355 0.0 1020910
17:00+23вюв54455 0.0 1018794
20:00+21в444777 0.0 1016458
22 мая, сб
сб2223:00+16всв116928 0.0 101727
02:00+16з1166100 0.0 101611
05:00+17зюз225288 0.0 101413
08:00+19з114999 0.0 101434
11:00+24юв3138100 0.0 1015498
14:00+24вюв544295 0.0 1016731
17:00+24вюв54423 0.0 1014702
20:00+21в55635 0.0 1014464